Date,TemperatureHighF,TemperatureAvgF,TemperatureLowF,DewpointHighF,DewpointAvgF,DewpointLowF,HumidityHigh,HumidityAvg,HumidityLow,PressureMaxIn,PressureMinIn,WindSpeedMaxMPH,WindSpeedAvgMPH,GustSpeedMaxMPH,PrecipitationSumIn
2013-2-9,32.9,25.5,16.1,19.7,11.5,7.7,73,55,43,30.42,30.02,19,-13,0,0.00
2013-2-10,37.8,22.9,10.5,21.5,13.6,7.2,89,70,33,30.53,30.38,4,0,0,0.01
2013-2-11,38.9,32.8,24.9,38.4,31.4,21.1,98,95,85,30.38,29.72,5,0,0,0.32
2013-2-12,42.1,37.3,28.9,35.2,27.5,24.8,98,68,52,30.03,29.79,14,1,0,0.00
2013-2-13,43.8,31.0,18.3,31.5,25.2,16.9,96,81,50,30.01,29.73,6,0,0,0.00
2013-2-14,44.8,34.3,24.7,32.4,29.0,23.5,97,83,50,30.05,29.77,5,0,0,0.04
2013-2-15,53.9,36.0,21.9,35.2,28.7,20.8,97,78,42,30.07,29.96,11,0,0,0.04
2013-2-16,36.4,32.9,28.0,33.2,24.9,12.2,97,74,51,30.03,29.81,7,0,0,0.04
2013-2-17,30.6,24.6,16.6,14.2,7.0,0.9,58,47,34,30.09,29.75,23,2,0,0.00
2013-2-18,34.4,23.0,14.8,20.1,9.0,1.7,85,56,33,30.33,30.08,14,1,0,0.00
2013-2-19,41.0,30.4,17.4,38.2,26.7,15.0,98,87,58,30.25,29.75,10,0,0,0.42
2013-2-20,34.9,28.2,23.2,25.7,15.2,9.8,75,58,44,30.05,29.80,21,2,0,0.00
2013-2-21,33.7,26.5,21.6,17.7,14.0,10.2,73,59,46,30.35,30.05,14,2,0,0.00
2013-2-22,36.7,28.9,19.6,28.4,21.2,13.9,86,73,56,30.45,30.31,7,0,0,0.00
2013-2-23,39.9,35.6,31.8,39.0,34.5,28.2,98,96,86,30.32,29.86,5,0,0,0.11
2013-2-24,44.4,36.3,30.4,38.9,30.6,21.7,98,81,60,30.05,29.81,12,1,0,0.00
2013-2-25,42.4,33.4,25.4,29.8,26.8,22.0,93,78,56,30.29,30.04,8,0,0,0.00
2013-2-26,43.4,33.9,23.8,33.9,28.7,22.5,96,82,62,30.33,30.03,10,1,0,0.00
2013-2-27,42.5,39.9,35.7,37.8,36.5,34.1,95,88,82,29.70,29.65,6,0,0,0.33
2013-2-28,47.6,38.5,32.5,38.5,32.7,28.9,98,81,57,29.67,29.60,8,0,0,0.00
2013-3-1,43.9,36.4,28.3,31.2,28.7,25.0,95,74,56,29.84,29.66,9,1,0,0.00
2013-3-2,38.5,33.2,29.3,26.5,23.9,20.7,79,68,57,29.85,29.77,12,1,0,0.00
2013-3-3,37.9,30.6,27.1,22.7,19.5,16.2,72,63,49,29.84,29.74,12,1,0,0.00
2013-3-4,40.5,32.5,25.8,22.4,19.6,15.8,71,59,44,29.99,29.84,20,2,0,0.00
2013-3-5,48.9,35.9,29.2,28.4,24.5,21.0,88,65,40,30.08,29.98,10,1,0,0.00
2013-3-6,43.2,37.5,30.5,35.7,31.1,26.6,91,78,65,30.02,29.89,18,2,0,0.02
2013-3-7,42.2,36.3,32.0,34.6,29.4,25.0,94,77,62,30.14,29.99,10,1,0,0.01
2013-3-8,43.1,34.4,29.1,35.4,29.7,25.8,95,83,66,30.27,30.07,12,1,0,0.16
2013-3-9,58.9,39.8,27.3,31.3,25.0,13.0,91,61,18,30.37,30.23,7,1,0,0.01
2013-3-10,52.9,34.4,23.2,34.3,27.1,21.7,96,78,45,30.43,30.34,6,0,0,0.00
2013-3-14,38.7,31.7,28.3,17.6,15.0,12.7,58,50,38,30.02,29.93,15,3,0,0.00
2013-3-16,36.5,34.4,32.3,30.8,25.8,21.4,91,71,56,29.90,29.82,4,0,0,0.02
2013-3-17,35.4,31.5,26.9,22.0,19.6,17.9,75,61,50,30.20,30.14,9,1,0,0.00
2013-3-20,36.1,35.5,34.7,25.6,24.0,22.5,69,62,59,29.86,29.85,9,0,0,0.00
2013-3-21,38.6,32.8,29.4,28.5,22.3,12.4,92,67,37,29.87,29.68,8,1,0,0.00
2013-3-22,40.2,33.0,26.9,21.5,19.0,17.2,71,56,42,29.85,29.82,11,1,0,0.00
2013-3-23,46.2,41.4,35.7,24.6,21.6,18.4,56,45,37,29.93,29.87,16,3,0,0.00
2013-3-25,37.1,35.3,33.1,32.1,29.6,26.4,93,80,66,29.64,29.56,9,0,0,0.00
2013-3-30,59.4,54.2,45.0,32.5,24.2,18.1,61,32,21,30.21,30.09,9,2,0,0.00
2013-4-1,38.0,36.1,34.8,16.0,14.2,12.7,44,40,36,29.94,29.91,7,1,0,0.03
2013-4-2,34.8,29.8,26.6,21.4,18.2,12.8,79,63,41,29.97,29.94,5,0,0,0.00
2013-4-6,39.9,35.5,31.6,20.6,17.3,12.5,63,48,35,30.30,30.25,11,1,0,0.00
2013-4-19,60.6,58.3,55.4,58.3,54.5,50.9,92,87,83,29.73,29.69,6,1,0,0.20
2013-4-20,59.7,51.1,43.3,52.1,35.6,23.9,95,59,30,30.33,29.70,16,1,0,0.00
2013-4-21,58.0,43.7,32.9,34.4,25.5,19.9,85,51,25,30.64,30.33,10,1,0,0.00
2013-4-22,53.9,42.4,29.9,38.0,32.2,28.0,94,70,43,30.67,30.50,13,1,0,0.00
2013-4-23,50.9,43.1,35.3,43.6,37.0,31.3,94,79,70,30.50,30.15,6,0,0,0.00
2013-4-24,73.1,53.5,30.7,53.9,44.3,29.6,98,74,48,30.15,29.81,9,1,0,0.00
2013-4-25,67.8,53.3,38.1,53.7,33.1,18.5,87,51,16,30.29,29.87,17,1,0,0.00
2013-4-26,68.3,49.7,33.1,39.2,32.3,19.3,95,60,17,30.43,30.28,11,1,0,0.00
2013-4-27,72.5,52.6,32.6,43.6,34.5,25.1,96,59,20,30.45,30.28,7,0,0,0.00
2013-4-28,71.3,55.0,35.3,45.2,37.4,29.4,95,58,30,30.33,30.18,8,1,0,0.00
2013-4-29,54.1,51.4,49.6,51.1,49.0,41.2,97,92,63,30.25,30.18,5,0,0,0.00
2013-4-30,67.7,55.1,39.6,51.5,41.8,23.3,98,68,21,30.35,30.21,10,1,0,0.00
2013-5-1,69.8,51.4,33.2,45.7,36.4,25.3,96,64,20,30.50,30.35,10,1,0,0.00
2013-5-2,77.5,55.4,34.9,48.8,41.3,33.9,98,66,28,30.49,30.34,6,1,0,0.00
2013-5-3,68.8,54.8,41.7,45.0,39.4,29.1,94,62,24,30.46,30.35,8,1,0,0.00
2013-5-4,72.5,53.1,36.5,45.6,40.2,35.3,98,67,29,30.39,30.22,9,1,0,0.00
2013-5-5,67.5,49.8,34.8,44.8,39.4,33.2,97,72,30,30.31,30.22,8,1,0,0.00
2013-5-6,71.3,53.7,36.1,54.7,46.5,34.5,96,78,52,30.28,30.16,7,1,0,0.00
2013-5-7,74.2,59.1,41.7,58.3,51.3,40.6,98,78,53,30.19,30.09,9,1,0,0.00
2013-5-8,69.3,61.0,53.9,63.6,58.9,52.8,98,93,77,30.11,29.96,7,0,0,0.07
2013-5-9,70.8,57.8,51.2,61.4,55.5,50.4,98,93,60,30.01,29.91,4,0,0,0.00
2013-5-10,80.7,63.0,45.1,63.9,55.2,44.6,99,80,42,30.03,29.91,6,0,0,0.00
2013-5-11,71.3,64.3,60.1,65.8,62.6,59.5,98,94,78,29.93,29.71,8,0,0,0.01
2013-5-12,66.7,58.6,46.5,59.6,42.6,25.4,98,61,25,29.96,29.69,14,1,0,0.00
2013-5-13,56.1,46.1,34.5,36.5,31.4,23.8,95,60,33,30.15,29.96,11,1,0,0.00
2013-5-14,63.9,47.2,31.4,39.4,30.8,18.3,97,61,19,30.18,30.04,8,0,0,0.01
2013-5-15,76.2,56.7,36.1,58.8,47.6,33.8,93,74,49,30.10,29.69,11,0,0,0.00
2013-5-16,84.7,64.4,49.1,63.1,54.0,46.1,98,74,33,29.86,29.73,7,0,0,0.00
2013-5-17,77.3,61.0,48.1,51.9,45.1,38.2,92,59,27,30.21,29.86,8,0,0,0.00
2013-5-18,62.1,54.6,45.2,56.9,51.5,43.4,97,90,65,30.32,30.21,2,0,0,0.00
2013-5-19,58.8,56.6,54.7,58.1,55.9,54.1,99,98,96,30.32,30.18,3,0,0,0.00
2013-5-20,81.6,65.9,56.7,70.3,62.5,56.4,99,90,63,30.19,29.97,6,0,0,0.00
2013-5-21,88.8,71.6,56.8,73.9,65.8,56.2,99,84,55,29.99,29.85,9,0,0,0.00
2013-5-22,85.3,70.1,62.3,76.3,66.8,61.4,98,90,68,29.93,29.82,5,0,0,0.00
2013-5-23,79.6,69.0,64.3,74.8,67.7,63.3,99,96,74,29.89,29.74,5,0,0,0.00
2013-5-24,67.0,53.3,43.4,66.7,51.9,42.2,99,95,86,30.00,29.70,9,1,0,0.20
2013-5-25,55.7,48.7,42.7,47.0,42.7,36.9,98,81,57,30.06,29.94,14,1,0,0.16
2013-5-26,69.4,55.1,41.7,44.0,39.5,31.9,92,60,28,30.24,30.02,12,1,0,0.00
2013-5-27,77.0,55.7,35.5,52.2,41.6,34.5,97,67,23,30.28,30.14,9,0,0,0.00
2013-5-28,59.3,53.6,44.4,56.7,52.2,43.3,99,95,83,30.25,30.14,2,0,0,0.47
2013-5-29,86.5,67.1,56.5,73.8,63.8,56.2,99,90,57,30.15,30.01,5,0,0,0.00
2013-5-30,92.4,74.3,60.4,73.0,65.5,59.8,99,78,38,30.15,30.06,7,0,0,0.00
2013-5-31,93.8,74.5,60.2,76.2,66.4,59.3,99,79,42,30.14,29.99,10,0,0,0.00
2013-6-1,92.3,74.2,58.3,74.4,66.9,57.5,99,80,49,30.04,29.90,7,0,0,0.00
2013-6-2,87.5,74.5,63.0,73.9,68.1,62.1,98,83,57,29.93,29.78,8,0,0,0.31
2013-6-3,70.2,69.4,68.4,69.5,68.7,67.5,98,98,97,29.84,29.82,3,0,0,0.05
2013-6-6,59.8,59.7,59.6,59.2,59.1,58.8,98,98,98,30.02,30.01,3,0,0,0.27
2013-6-7,60.0,59.4,59.0,59.7,58.9,58.4,99,98,98,30.01,29.90,3,0,0,0.68
2013-6-9,83.2,73.6,62.1,67.0,62.9,58.8,95,72,45,30.18,30.12,5,0,0,0.00
2013-6-13,61.7,60.3,56.1,61.1,59.6,55.5,98,97,95,29.77,29.45,7,0,0,0.99
2013-6-14,72.2,59.2,52.5,67.3,56.6,51.6,99,92,61,29.92,29.56,6,0,0,0.61
2013-6-15,81.8,65.9,54.1,64.4,58.8,53.0,100,81,40,30.04,29.92,6,0,0,0.00
2013-6-16,80.7,65.9,52.2,69.5,60.2,51.4,98,84,55,30.02,29.80,13,0,0,0.00
2013-6-17,85.0,69.6,57.6,74.1,65.0,56.9,99,87,55,29.93,29.84,5,0,0,0.06
2013-6-18,82.3,66.9,58.0,72.9,64.8,57.4,99,93,61,29.92,29.81,4,0,0,0.23
2013-6-19,79.8,65.5,56.2,61.8,56.5,48.3,99,77,37,30.18,29.90,5,0,0,0.00
2013-6-20,83.0,65.4,49.3,64.0,57.2,48.5,99,78,40,30.28,30.18,6,0,0,0.00
2013-6-21,82.6,62.4,52.2,63.6,56.4,51.4,98,83,48,30.32,30.28,6,0,0,0.00
2013-6-25,71.8,71.5,71.1,71.2,70.8,70.5,98,98,97,29.88,29.82,2,0,0,0.70
2013-6-26,86.8,74.8,68.1,74.1,69.8,66.0,99,86,59,29.87,29.80,5,0,0,0.00
2013-6-27,88.5,76.0,66.4,76.3,70.5,65.5,98,85,58,29.83,29.56,8,0,0,1.15
2013-6-29,88.0,78.2,65.8,72.4,67.8,64.5,96,73,48,29.72,29.59,7,0,0,0.96
2013-6-30,83.0,72.6,62.7,76.3,69.8,61.8,98,91,75,29.92,29.71,4,0,0,0.00
2013-7-1,76.6,73.1,70.4,75.0,72.3,69.2,99,97,93,30.04,29.89,2,0,0,1.83
2013-7-2,84.3,75.7,72.4,78.1,73.9,71.2,99,94,73,30.18,30.04,6,0,0,0.08
2013-7-3,86.8,75.2,69.4,79.4,73.0,68.8,99,93,72,30.25,30.17,4,0,0,0.47
2013-7-4,90.3,78.2,69.4,78.6,73.5,69.1,100,87,61,30.26,30.15,8,0,0,0.00
2013-7-5,92.8,78.9,67.9,78.1,72.5,67.3,99,83,51,30.22,30.09,7,0,0,0.00
2013-7-6,94.0,79.9,69.4,79.4,73.4,68.7,99,83,52,30.15,30.03,5,0,0,0.00
2013-7-7,94.0,80.1,69.8,80.1,73.9,68.7,99,83,57,30.08,29.94,6,0,0,0.30
2013-7-8,89.7,76.1,66.6,76.1,70.6,66.0,99,85,52,30.06,29.98,7,0,0,0.00
2013-7-9,89.5,75.3,64.4,76.7,70.3,63.6,98,86,58,30.09,30.00,8,0,0,0.02
2013-7-10,87.7,76.9,69.5,77.2,72.7,68.9,99,88,62,30.03,29.82,6,0,0,0.00
2013-7-11,84.7,75.7,67.1,74.1,70.8,63.9,98,86,63,29.94,29.81,2,0,0,0.00
2013-7-12,76.7,70.4,65.0,71.3,67.5,63.5,98,91,78,30.09,29.93,4,0,0,0.13
2013-7-13,80.8,72.1,66.1,77.0,70.8,65.5,99,96,85,30.29,30.09,6,0,0,0.07
2013-7-14,92.5,79.7,72.2,78.4,74.3,71.0,99,85,54,30.35,30.24,6,0,0,0.00
2013-7-15,94.8,79.7,67.7,79.9,73.9,67.1,99,84,54,30.27,30.15,5,0,0,0.00
2013-7-16,93.5,79.3,67.6,79.9,72.2,67.0,99,81,49,30.22,30.14,5,0,0,0.00
2013-7-17,97.8,80.6,69.6,78.3,73.0,68.5,98,80,40,30.21,30.07,4,0,0,0.00
2013-7-18,97.8,82.4,70.3,80.2,74.5,69.5,99,80,44,30.09,29.96,5,0,0,0.00
2013-7-19,96.5,82.8,71.5,80.6,76.0,70.9,98,82,52,29.98,29.80,8,0,0,0.00
2013-7-20,92.7,80.6,72.2,78.2,73.7,69.9,97,81,53,29.85,29.73,3,0,0,0.05
2013-7-21,89.3,77.3,69.3,74.7,70.7,66.0,98,82,54,29.96,29.84,4,0,0,0.00
2013-7-22,84.8,74.3,67.2,79.1,71.8,65.8,99,92,76,29.97,29.80,4,0,0,0.33
2013-7-23,86.5,76.5,69.0,76.9,73.3,68.0,99,91,68,29.80,29.57,5,0,0,0.91
2013-7-24,72.7,67.7,65.5,68.8,66.8,64.9,99,97,87,29.73,29.63,3,0,0,0.00
2013-8-1,67.8,67.6,67.2,67.5,67.3,66.8,99,99,99,29.88,29.85,0,0,0,0.90
2013-8-2,67.3,64.6,60.4,67.0,64.3,60.1,99,99,99,29.88,29.81,1,0,0,0.00
2013-8-6,82.2,73.2,64.3,65.3,62.1,55.2,95,70,44,30.13,30.08,5,0,0,0.00
2013-8-7,77.0,68.1,61.9,70.6,66.6,60.8,99,95,75,30.15,30.06,4,0,0,0.32
2013-8-8,82.4,72.5,68.3,79.3,71.3,68.0,100,96,81,30.07,29.99,3,0,0,0.14
2013-8-9,84.0,75.1,70.7,77.7,73.8,70.4,100,96,78,30.02,29.81,7,0,0,0.23
2013-8-10,81.5,71.3,62.7,71.9,67.7,60.9,100,89,58,30.07,29.88,7,0,0,0.00
2013-8-11,82.0,67.9,55.5,69.1,61.9,54.9,99,83,48,30.14,30.03,3,0,0,0.00
2013-8-12,84.5,70.5,64.1,70.6,66.1,58.7,99,88,51,30.05,29.93,2,0,0,0.07
2013-8-13,81.0,69.1,63.3,75.5,67.6,62.4,99,96,77,29.95,29.70,2,0,0,1.01
2013-8-14,70.8,60.7,53.3,64.7,56.8,52.0,99,88,58,29.91,29.78,11,0,0,0.00
2013-8-17,81.3,72.5,61.3,66.9,63.2,54.6,97,75,45,30.29,30.23,3,0,0,0.00
2013-8-18,72.3,65.2,59.6,67.5,62.9,58.6,98,93,70,30.28,30.15,2,0,0,0.01
2013-8-19,75.7,65.9,57.5,68.0,63.1,57.1,99,91,69,30.16,30.06,2,0,0,0.00
2013-8-20,85.7,69.8,56.5,72.9,65.0,55.8,100,87,50,30.15,30.07,4,0,0,0.00
2013-8-21,86.2,70.8,58.5,72.8,65.1,57.9,100,85,47,30.20,30.07,3,0,0,0.00
2013-8-22,77.7,68.9,64.3,75.3,68.2,63.6,99,98,91,30.09,29.89,3,0,0,2.48
2013-8-23,78.6,69.1,61.2,68.8,65.3,59.4,100,89,56,30.12,29.90,7,0,0,0.00
2013-8-24,82.3,64.6,53.7,63.5,57.2,49.9,98,80,42,30.37,30.12,4,0,0,0.00
2013-8-25,81.5,64.1,50.2,64.1,57.2,49.7,99,82,45,30.43,30.26,5,0,0,0.00
2013-8-26,81.0,67.8,58.5,72.0,64.6,57.6,98,90,71,30.26,29.93,4,0,0,0.08
2013-8-27,86.5,74.0,67.1,74.7,70.1,66.8,99,89,64,29.93,29.84,4,0,0,0.01
2013-8-28,76.2,70.4,63.8,74.0,69.7,63.2,99,98,92,29.91,29.85,2,0,0,0.40
2013-8-29,79.7,70.8,65.1,74.6,69.5,64.8,100,96,80,30.04,29.90,4,0,0,0.03
2013-8-30,82.2,72.4,67.3,73.8,69.4,66.6,99,91,71,30.05,29.87,4,0,0,0.00
2013-8-31,83.6,74.7,68.1,77.1,72.4,67.5,99,93,78,29.89,29.80,5,0,0,0.00
2013-9-1,81.5,74.6,69.9,77.4,72.6,69.6,99,94,80,29.86,29.79,5,0,0,0.06
2013-9-2,75.4,71.7,68.1,74.6,71.3,67.8,100,99,93,29.82,29.72,2,0,0,0.31
2013-9-3,79.5,69.5,59.4,69.7,64.8,58.5,100,87,53,29.91,29.73,5,0,0,0.00
2013-9-4,79.0,64.8,53.9,65.5,59.5,53.3,100,85,55,30.03,29.90,6,0,0,0.00
2013-9-5,76.2,62.1,51.2,65.1,55.7,47.1,100,83,42,30.18,29.95,7,0,0,0.00
2013-9-6,70.8,55.7,46.4,52.9,48.1,41.9,97,79,41,30.28,30.16,4,0,0,0.00
2013-9-7,76.3,58.8,43.1,60.5,52.0,42.4,99,81,42,30.17,29.93,5,0,0,0.00
2013-9-8,78.7,65.0,56.5,67.9,59.2,49.4,99,83,50,30.10,29.85,8,0,0,0.00
2013-9-9,71.8,59.2,45.4,62.5,53.6,44.3,97,83,59,30.26,30.10,6,0,0,0.00
2013-9-10,83.7,71.1,62.0,76.4,68.4,60.5,98,91,76,30.18,30.06,6,0,0,0.00
2013-9-11,90.0,76.0,66.1,81.3,73.2,65.5,100,92,72,30.14,29.99,6,0,0,0.00
2013-9-12,81.0,73.6,68.0,78.8,72.4,67.7,100,96,87,30.00,29.70,5,0,0,0.69
2013-9-14,56.9,49.1,44.2,48.9,46.3,43.1,97,90,72,30.17,30.10,2,0,0,0.38
2013-9-15,69.2,53.5,39.1,57.4,48.2,38.3,99,85,46,30.25,30.11,8,0,0,0.00
2013-9-16,69.2,58.5,51.0,61.5,54.9,50.1,99,89,61,30.27,30.06,6,0,0,0.02
2013-9-17,63.8,52.5,42.9,50.3,44.4,39.5,96,76,42,30.46,30.27,5,0,0,0.00
2013-9-18,68.5,51.2,37.4,54.3,45.5,36.6,99,84,47,30.39,30.22,5,0,0,0.00
2013-9-19,72.5,54.1,38.9,58.6,49.2,38.4,100,86,50,30.23,30.10,3,0,0,0.00
2013-9-20,76.1,58.3,43.9,64.9,54.3,43.4,100,88,55,30.12,30.00,4,0,0,0.00
2013-9-21,76.2,61.8,48.4,66.2,58.0,47.8,99,89,54,30.04,29.68,7,0,0,0.39
2013-9-22,65.9,59.3,51.4,63.5,53.7,43.5,99,83,53,29.95,29.67,12,0,0,0.00
2013-9-23,63.1,52.9,42.1,49.2,45.4,40.9,98,77,53,30.07,29.95,9,0,0,0.00
2013-9-24,69.6,53.6,40.1,54.7,46.7,38.8,98,80,45,30.09,29.91,6,0,0,0.01
2013-9-25,69.5,54.3,41.9,57.4,49.0,40.8,98,84,48,30.00,29.90,4,0,0,0.00
2013-9-26,68.0,55.3,44.4,61.2,52.9,43.6,99,92,73,30.13,29.97,3,0,0,0.00
2013-9-27,66.3,55.5,47.1,58.2,52.6,46.6,99,91,68,30.29,30.13,3,0,0,0.00
2013-9-28,70.4,57.2,48.1,58.1,52.7,47.6,99,87,54,30.35,30.26,5,0,0,0.00
2013-9-29,68.6,55.0,44.4,60.0,51.7,43.8,99,90,62,30.27,30.09,4,0,0,0.00
2013-9-30,70.1,54.1,42.9,59.7,51.0,42.4,100,90,61,30.12,30.00,4,0,0,0.00
2013-10-1,76.6,57.9,43.7,65.4,54.6,43.1,100,90,61,30.05,29.93,5,0,0,0.00
2013-10-2,80.1,61.6,47.0,67.2,57.4,46.5,100,88,57,30.05,29.94,9,0,0,0.00
2013-10-3,73.8,60.9,48.7,64.5,57.7,48.1,100,90,64,30.15,30.05,3,0,0,0.00
2013-10-4,82.1,65.7,54.7,70.8,62.2,54.1,99,90,60,30.09,29.98,5,0,0,0.00
2013-10-5,76.8,67.7,61.3,71.3,65.7,60.7,99,94,78,30.11,30.02,3,0,0,0.11
2013-10-6,67.7,65.8,64.1,67.1,65.3,63.7,99,98,97,30.10,30.02,7,0,0,0.01
2013-10-7,73.6,65.2,54.0,71.5,64.1,49.6,100,96,83,30.02,29.74,16,0,0,1.06
2013-10-8,65.0,52.7,42.7,54.8,48.5,42.4,100,87,56,30.35,30.01,5,0,0,0.00
2013-10-9,60.5,50.6,40.9,50.3,46.6,40.3,100,87,64,30.42,30.31,9,0,0,0.00
2013-10-10,61.4,56.2,49.1,56.4,52.5,47.1,97,88,82,30.31,30.09,5,0,0,0.02
2013-10-11,65.4,61.7,58.9,61.6,58.5,54.5,96,89,82,30.11,30.02,6,0,0,0.00
2013-10-12,71.9,62.7,53.7,59.2,51.2,34.0,96,69,28,30.28,30.08,14,1,0,0.00
2013-10-13,63.7,57.0,47.9,54.7,51.6,46.8,96,83,68,30.40,30.28,7,0,0,0.00
2013-10-14,67.3,52.7,41.9,55.0,48.2,41.3,99,87,58,30.39,30.25,5,0,0,0.00
2013-10-15,70.8,53.8,42.7,58.9,49.0,42.2,100,86,55,30.29,30.14,5,0,0,0.00
2013-10-16,65.4,56.1,45.2,59.9,53.5,44.1,98,91,79,30.15,29.93,3,0,0,0.00
2013-10-17,73.1,64.0,58.1,63.8,61.3,57.0,99,92,70,29.94,29.69,5,0,0,0.02
2013-10-18,66.1,56.8,41.9,63.0,48.4,40.8,98,76,48,30.02,29.69,12,1,0,0.01
2013-10-19,61.1,48.7,36.1,52.6,44.5,35.3,99,87,57,30.02,29.78,3,0,0,0.05
2013-10-20,61.9,50.1,36.9,50.9,41.5,33.8,98,75,37,30.10,29.79,15,1,0,0.01
2013-10-21,65.9,46.2,32.0,46.7,38.4,31.2,99,79,38,30.19,30.01,9,0,0,0.00
2013-10-22,62.8,45.7,35.4,53.6,42.2,34.6,99,89,62,30.02,29.78,6,0,0,0.00
2013-10-23,53.7,41.9,32.5,43.7,37.2,31.7,99,85,57,29.85,29.65,5,0,0,0.01
2013-10-24,53.4,40.4,30.1,37.5,32.3,27.5,98,76,41,30.05,29.80,10,0,0,0.00
2013-10-25,53.2,37.7,26.0,37.0,30.7,24.8,97,79,42,30.27,30.05,12,0,0,0.00
2013-10-26,54.2,38.5,24.2,38.1,30.3,23.2,98,77,39,30.27,29.92,13,0,0,0.00
2013-10-27,56.7,44.6,32.3,37.7,34.4,30.5,94,70,40,30.16,29.89,9,0,0,0.00
2013-10-28,60.5,40.9,27.1,40.7,33.3,26.1,98,79,40,30.35,30.15,8,0,0,0.00
2013-10-29,56.7,41.7,32.4,38.5,34.8,30.9,97,79,44,30.45,30.34,5,0,0,0.00
2013-10-30,56.8,44.9,31.9,50.7,41.7,30.6,97,89,78,30.39,30.20,2,0,0,0.00
2013-10-31,61.7,54.1,43.3,59.4,52.7,42.2,99,95,89,30.25,29.81,4,0,0,0.00
2013-11-1,68.7,59.7,43.6,64.2,56.4,42.8,99,90,61,29.81,29.56,15,1,0,0.00
2013-11-2,65.5,49.8,39.1,52.9,44.8,38.1,99,85,51,29.82,29.64,5,0,0,0.00
2013-11-3,48.9,42.3,37.2,43.6,37.8,33.0,99,85,57,30.18,29.82,6,0,0,0.00
2013-11-6,61.4,59.2,52.9,50.1,49.1,47.9,85,70,64,30.25,30.16,2,0,0,0.00
2013-11-7,58.2,53.8,42.2,57.1,51.6,35.5,96,92,77,29.94,29.80,2,0,0,0.00
2013-11-8,47.2,37.2,31.6,32.6,30.2,28.3,97,78,50,30.23,29.98,1,0,0,0.00
2013-11-9,43.7,35.5,25.1,33.0,30.3,23.9,95,82,62,30.30,30.03,0,0,0,0.00
2013-11-10,57.0,49.7,28.3,38.4,34.3,27.3,96,56,48,30.02,29.89,13,2,0,0.00
2013-11-11,50.8,48.5,31.9,35.4,33.3,26.7,81,56,50,30.22,30.02,5,0,0,0.00
2013-11-12,34.7,31.2,26.5,21.0,19.2,18.3,75,61,57,30.33,30.25,6,1,0,0.00
2013-11-13,37.3,28.3,22.4,19.1,17.0,14.6,87,66,39,30.40,30.34,3,1,0,0.00
2013-11-14,37.4,27.9,21.0,23.5,21.4,19.3,93,78,53,30.29,30.27,1,0,0,0.00
2013-11-15,23.6,22.8,22.5,21.6,20.8,20.5,92,92,92,30.27,30.24,0,0,0,0.00
2013-11-16,50.2,44.2,30.4,46.3,41.5,27.8,99,91,76,30.35,30.27,1,0,0,0.00
2013-11-17,46.9,46.9,46.9,46.4,46.4,46.4,98,98,98,30.23,30.23,0,0,0,0.00
2013-11-18,52.6,50.4,44.0,52.1,33.2,27.4,98,54,39,29.80,29.66,4,1,0,0.00
2013-11-19,43.2,42.3,41.5,27.2,27.0,26.1,55,54,53,30.08,30.06,13,-165,0,0.00
2013-11-20,30.7,30.7,30.6,22.1,21.7,21.3,70,69,68,30.54,30.50,0,0,0,0.00
2013-11-21,49.1,43.2,42.3,38.4,38.1,36.2,86,82,61,30.52,30.45,0,0,0,0.00
2013-11-22,51.1,48.6,43.0,48.6,46.7,41.4,97,93,91,30.26,29.95,2,0,0,0.00
2013-11-23,43.6,39.6,31.2,26.4,22.9,14.8,72,52,41,30.07,29.94,4,1,0,0.00
2013-11-24,26.5,22.5,20.4,8.8,6.5,4.2,58,50,44,30.43,30.08,8,2,0,0.00
2013-11-25,34.4,26.6,15.9,17.7,14.0,8.1,81,59,47,30.52,30.36,4,0,0,0.00
2013-11-26,52.0,34.4,29.2,49.9,31.5,17.5,99,90,61,30.35,29.77,5,-18,0,0.41
2013-11-27,53.7,40.5,31.7,53.7,38.8,22.4,100,94,66,29.79,29.39,15,1,0,1.95
2013-11-28,33.6,28.6,23.9,21.9,17.5,12.6,86,64,42,30.50,29.82,12,1,0,0.00
2013-11-29,35.3,28.1,20.2,23.3,21.6,18.2,92,78,57,30.77,30.50,2,0,0,0.00
2013-11-30,33.7,25.3,16.1,27.7,19.7,13.9,92,80,61,30.79,30.41,2,0,0,0.00
2013-12-1,47.9,34.5,24.8,34.2,29.7,23.6,96,83,58,30.40,30.06,1,0,0,0.00
2013-12-2,46.7,31.8,26.9,34.7,28.9,25.7,96,90,58,30.04,29.92,1,0,0,0.00
2013-12-3,52.4,37.9,25.9,38.9,32.1,24.9,97,82,56,30.04,29.91,2,0,0,0.00
2013-12-4,49.9,42.4,28.6,41.2,37.3,27.9,97,83,69,30.15,30.08,0,0,0,0.00
2013-12-5,52.1,48.8,43.6,51.8,48.5,42.8,99,99,97,30.14,29.96,0,0,0,0.09
2013-12-6,51.0,42.5,36.5,51.0,41.5,36.0,100,97,93,30.17,29.90,2,0,0,0.75
2013-12-7,37.3,32.0,25.5,35.2,28.0,24.0,98,86,64,30.53,30.12,3,0,0,0.03
2013-12-8,30.4,27.6,22.9,27.3,21.8,18.0,96,79,63,30.62,30.41,2,0,0,0.00
2013-12-9,34.7,31.6,29.0,34.2,31.0,28.2,98,97,96,30.36,30.01,3,0,0,0.07
2013-12-10,32.5,23.6,16.3,31.7,22.4,14.9,99,95,91,30.16,29.93,2,0,0,0.00
2013-12-11,32.3,18.0,10.0,21.2,14.1,8.1,96,86,58,30.36,30.18,1,0,0,0.00
2013-12-12,25.7,15.2,11.2,18.5,10.5,8.4,93,82,52,30.39,30.21,3,0,0,0.00
2013-12-13,32.6,20.9,6.5,20.1,15.6,4.4,93,81,54,30.36,30.17,5,0,0,0.00
2013-12-14,25.5,22.6,18.0,22.2,19.9,16.3,95,89,81,30.51,29.91,4,0,0,0.00
2013-12-15,36.9,32.5,24.7,34.0,29.1,22.2,98,87,76,29.87,29.59,6,0,0,0.11
2013-12-16,29.0,21.3,8.8,24.1,13.3,7.0,93,72,49,30.25,29.86,3,0,0,0.00
2013-12-17,26.2,19.0,11.3,24.5,17.1,9.4,93,92,89,30.24,29.98,1,0,0,0.00
2013-12-18,36.3,22.0,9.1,24.2,17.6,7.0,97,84,59,30.20,29.96,2,0,0,0.00
2013-12-19,40.8,25.3,8.5,30.0,21.6,6.5,95,87,61,30.21,30.07,2,0,0,0.07
2013-12-20,46.6,31.4,24.6,34.9,28.8,23.6,97,91,62,30.15,30.02,0,0,0,0.25
2013-12-21,49.5,36.2,29.8,43.3,34.5,29.1,98,94,78,30.04,29.94,0,0,0,0.10
2013-12-22,64.2,50.8,34.7,60.4,49.6,33.7,100,96,86,29.98,29.83,3,0,0,0.04
2013-12-23,56.3,46.5,37.1,56.3,45.1,30.2,100,95,76,30.18,29.93,3,0,0,0.74
2013-12-24,37.6,30.6,23.2,30.2,23.2,12.9,93,74,62,30.38,30.14,6,1,0,0.00
2013-12-25,25.6,22.6,16.1,17.1,12.7,8.0,81,66,51,30.56,30.39,3,0,0,0.00
2013-12-26,28.9,22.4,16.2,25.2,19.2,14.3,94,88,78,30.45,30.25,1,0,0,0.00
2013-12-29,40.2,38.9,34.5,39.1,37.5,33.1,97,95,92,29.75,29.58,8,0,0,0.79
2013-12-30,42.2,30.9,19.5,37.2,26.0,13.1,99,83,63,30.22,29.75,8,0,0,0.00
2013-12-31,29.3,22.5,14.8,25.1,14.9,9.7,90,73,56,30.33,30.09,10,0,0,0.00
2014-1-1,31.0,23.5,13.7,23.2,16.9,10.7,91,76,65,30.45,30.33,5,0,0,0.00
2014-1-2,28.4,25.1,22.3,22.2,21.1,19.6,89,85,75,30.20,29.86,3,1,0,0.00